This is the latest recevied weather packets stored in our database for station/object N4DWK. If no packets are shown the sender has not sent any weather packets the latest 10 day(s).
| Time | Temp. | Humidity | Pressure | Rain* | Wind** | Luminosity | Snow |
|---|---|---|---|---|---|---|---|
| 1787869206 | 29.44° C | 74% | 1013 hPa | 0 mm | - | 30 W/m² | - |
| 1787868907 | 29.44° C | 74% | 1012.9 hPa | 0 mm | - | 33 W/m² | - |
| 1787868607 | 29.44° C | 73% | 1012.8 hPa | 0 mm | - | 39 W/m² | - |
| 1787868311 | 29.44° C | 73% | 1012.9 hPa | 0 mm | - | 42 W/m² | - |
| 1787868006 | 29.44° C | 73% | 1012.9 hPa | 0 mm | - | 46 W/m² | - |
| 1787867706 | 29.44° C | 71% | 1012.9 hPa | 0 mm | - | 51 W/m² | - |
| 1787867405 | 29.44° C | 72% | 1012.8 hPa | 0 mm | - | 53 W/m² | - |
| 1787867105 | 30° C | 71% | 1012.9 hPa | 0 mm | - | 51 W/m² | - |
| 1787866806 | 30° C | 71% | 1013 hPa | 0 mm | - | 53 W/m² | - |
| 1787866506 | 30° C | 71% | 1013 hPa | 0 mm | - | 60 W/m² | - |
| 1787866205 | 30° C | 72% | 1013.1 hPa | 0 mm | - | 70 W/m² | - |
| 1787865906 | 30° C | 71% | 1013 hPa | 0 mm | - | 86 W/m² | - |
| 1787865607 | 30° C | 72% | 1012.9 hPa | 0 mm | - | 116 W/m² | - |
| 1787865311 | 30.56° C | 71% | 1012.8 hPa | 0 mm | - | 84 W/m² | - |
| 1787865006 | 30.56° C | 71% | 1012.9 hPa | 0 mm | - | 109 W/m² | - |
| 1787864707 | 30.56° C | 71% | 1012.9 hPa | 0 mm | - | 97 W/m² | - |
| 1787864406 | 30.56° C | 69% | 1012.8 hPa | 0 mm | - | 105 W/m² | - |
| 1787864105 | 30.56° C | 70% | 1012.8 hPa | 0 mm | - | 151 W/m² | - |
| 1787863806 | 30.56° C | 70% | 1012.9 hPa | 0 mm | - | 130 W/m² | - |
| 1787863505 | 30.56° C | 69% | 1013 hPa | 0 mm | - | 151 W/m² | - |
| 1787863206 | 31.11° C | 68% | 1013.1 hPa | 0 mm | - | 183 W/m² | - |
| 1787862906 | 31.11° C | 66% | 1013.2 hPa | 0 mm | - | 183 W/m² | - |
| 1787862606 | 31.11° C | 70% | 1013.3 hPa | 0 mm | - | 260 W/m² | - |
| 1787862306 | 31.11° C | 66% | 1013.4 hPa | 0 mm | - | 251 W/m² | - |
| 1787862007 | 31.11° C | 66% | 1013.4 hPa | 0 mm | - | 214 W/m² | - |
* Rain latest hour (hover to see other rain measurements)
** Current wind speed in m/s (hover to see current wind gust speed)